Langley AFB, VA

8:51 AM EDT on July 21, 2017 (GMT -0400)
Langley Air Force Base

Weather History for KLFI - January, 2013

Change the Weather History Date:

Wednesday, January 2, 2013

  Actual Average Record
Temperature  
Mean Temperature 39 °F -  
Max Temperature 42 °F 48 °F 75 °F (1985)
Min Temperature 36 °F 33 °F 18 °F (1940)
Degree Days  
Heating Degree Days 26    
Moisture  
Dew Point 36 °F    
Average Humidity 88    
Maximum Humidity 100    
Minimum Humidity 67    
Precipitation  
Precipitation 0.13 in - - ()
Sea Level Pressure  
Sea Level Pressure 30.06 in    
Wind  
Wind Speed 10 mph (NE)    
Max Wind Speed 14 mph    
Max Gust Speed -    
Visibility 8 miles    
Events Rain    
Averages and records for this station are not official NWS values.
T = Trace of Precipitation, MM = Missing Value Source: NWS Daily Summary

Daily Weather History Graph

Daily Weather History Graph

Search for Another Location

Airport or City:

Trip Planner

Search our weather history database for the weather conditions in past years. The results will help you decide how hot, cold, wet, or windy it might be!

Date:

Astronomy

Jan. 02, 2013 Rise Set
Actual Time 7:19 AM EST 5:00 PM EST
Civil Twilight 6:50 AM EST 5:29 PM EST
Nautical Twilight 6:17 AM EST 6:01 PM EST
Astronomical Twilight 5:46 AM EST 6:33 PM EST
Moon 10:22 PM EST (1/2) 10:07 AM EST (1/2)
Length of Visible Light 10h 38m
Length of Day
9h 41m
Waning Gibbous, 75% of the Moon is Illuminated
Jan 2
Waning Gibbous
Jan 4
Last Quarter
Jan 11
New
Jan 18
First Quarter
Jan 26
Full

Hourly Weather History & Observations

Time (EST) Temp. Windchill Dew Point Humidity Pressure Visibility Wind Dir Wind Speed Gust Speed Precip Events Conditions
12:06 AM 42.8 °F 36.2 °F 41.0 °F 93% 30.01 in 5.0 mi NE 12.7 mph - N/A Rain Light Rain
12:11 AM 42.8 °F 36.6 °F 41.0 °F 93% 30.01 in 5.0 mi NE 11.5 mph - N/A Rain Light Rain
12:28 AM 41.0 °F 33.9 °F 39.2 °F 93% 30.01 in 6.0 mi NE 12.7 mph - N/A Rain Light Rain
12:36 AM 41.0 °F 34.3 °F 39.2 °F 93% 30.00 in 6.0 mi NE 11.5 mph - N/A Rain Light Rain
12:38 AM 41.0 °F 33.9 °F 39.2 °F 93% 30.00 in 6.0 mi NE 12.7 mph - N/A Rain Light Rain
12:55 AM 40.3 °F 33.4 °F 38.1 °F 92% 30.00 in 6.0 mi NE 11.5 mph - 0.03 in Rain Light Rain
12:59 AM 41.0 °F 34.3 °F 37.4 °F 87% 30.00 in 6.0 mi NE 11.5 mph - N/A Rain Light Rain
1:11 AM 41.0 °F 34.7 °F 37.4 °F 87% 30.00 in 6.0 mi NE 10.4 mph - N/A Rain Light Rain
1:35 AM 41.0 °F 34.3 °F 37.4 °F 87% 29.99 in 5.0 mi NE 11.5 mph - N/A Rain Light Rain
1:55 AM 39.9 °F 32.5 °F 37.8 °F 92% 30.00 in 4.0 mi NE 12.7 mph - 0.03 in Rain Light Rain
2:07 AM 39.2 °F 31.6 °F 37.4 °F 93% 30.00 in 5.0 mi NNE 12.7 mph - N/A Rain Light Rain
2:11 AM 39.2 °F 31.2 °F 37.4 °F 93% 30.00 in 5.0 mi NE 13.8 mph - N/A Rain Light Rain
2:14 AM 39.2 °F 31.6 °F 37.4 °F 93% 30.00 in 5.0 mi NE 12.7 mph - N/A Rain Light Rain
2:55 AM 39.6 °F 32.5 °F 37.8 °F 93% 30.01 in 5.0 mi NE 11.5 mph - 0.03 in Rain Light Rain
2:59 AM 39.2 °F 31.6 °F 37.4 °F 93% 30.01 in 5.0 mi NE 12.7 mph - N/A Rain Light Rain
3:10 AM 39.2 °F 31.6 °F 37.4 °F 93% 30.01 in 5.0 mi NE 12.7 mph - N/A Rain Light Rain
3:18 AM 39.2 °F 32.0 °F 37.4 °F 93% 30.01 in 5.0 mi NE 11.5 mph - N/A Rain Light Rain
3:29 AM 39.2 °F 32.0 °F 37.4 °F 93% 30.00 in 5.0 mi NE 11.5 mph - N/A Rain Light Rain
3:48 AM 39.2 °F 32.0 °F 37.4 °F 93% 30.01 in 6.0 mi NNE 11.5 mph - N/A Rain Light Rain
3:55 AM 39.4 °F 31.4 °F 37.8 °F 94% 30.01 in 7.0 mi NE 13.8 mph - 0.03 in Rain Light Rain
4:36 AM 39.2 °F 32.5 °F 37.4 °F 93% 30.02 in 8.0 mi NNE 10.4 mph - N/A   Overcast
4:46 AM 39.2 °F 32.5 °F 37.4 °F 93% 30.01 in 8.0 mi NNE 10.4 mph - N/A Rain Light Rain
4:55 AM 38.5 °F 31.1 °F 36.7 °F 93% 30.00 in 8.0 mi NE 11.5 mph - 0.01 in Rain Light Rain
4:56 AM 39.2 °F 32.0 °F 37.4 °F 93% 30.01 in 8.0 mi NE 11.5 mph - N/A   Overcast
4:57 AM 39.2 °F 32.5 °F 37.4 °F 93% 30.01 in 8.0 mi NE 10.4 mph - N/A Rain Light Rain
5:16 AM 39.2 °F 32.5 °F 35.6 °F 87% 30.02 in 6.0 mi NE 10.4 mph - N/A Rain Light Rain
5:21 AM 39.2 °F 32.5 °F 35.6 °F 87% 30.02 in 6.0 mi NE 10.4 mph - N/A   Overcast
5:25 AM 39.2 °F 33.0 °F 35.6 °F 87% 30.02 in 6.0 mi NNE 9.2 mph - N/A   Overcast
5:27 AM 39.2 °F 32.5 °F 35.6 °F 87% 30.01 in 6.0 mi NE 10.4 mph - N/A Rain Light Rain
5:38 AM 39.2 °F 32.5 °F 37.4 °F 93% 30.04 in 7.0 mi NNE 10.4 mph - N/A   Overcast
5:55 AM 38.3 °F 32.5 °F 36.7 °F 94% 30.02 in 6.0 mi NE 8.1 mph - 0.00 in   Overcast
5:58 AM 37.4 °F 31.4 °F 37.4 °F 100% 30.03 in 6.0 mi NNE 8.1 mph - N/A   Overcast
6:10 AM 39.2 °F 33.6 °F 37.4 °F 93% 30.04 in 8.0 mi NNE 8.1 mph - N/A Rain Light Rain
6:20 AM 39.2 °F 33.6 °F 37.4 °F 93% 30.04 in 8.0 mi NE 8.1 mph - N/A   Overcast
6:29 AM 39.2 °F 33.6 °F 37.4 °F 93% 30.04 in 7.0 mi NE 8.1 mph - N/A Rain Light Rain
6:37 AM 39.2 °F 33.0 °F 37.4 °F 93% 30.03 in 6.0 mi NE 9.2 mph - N/A Rain Light Rain
6:55 AM 38.5 °F 34.1 °F 37.2 °F 95% 30.04 in 6.0 mi North 5.8 mph - 0.00 in Rain Light Rain
6:59 AM 39.2 °F 35.9 °F 37.4 °F 93% 30.04 in 6.0 mi NNE 4.6 mph - N/A Rain Light Rain
7:03 AM 39.2 °F 35.9 °F 37.4 °F 93% 30.04 in 6.0 mi NNE 4.6 mph - N/A   Overcast
7:16 AM 39.2 °F 35.9 °F 37.4 °F 93% 30.05 in 8.0 mi NNE 4.6 mph - N/A   Overcast
7:47 AM 39.2 °F 32.5 °F 37.4 °F 93% 30.07 in 10.0 mi NE 10.4 mph - N/A   Overcast
7:55 AM 38.7 °F 31.8 °F 37.0 °F 94% 30.07 in 10.0 mi NE 10.4 mph - 0.00 in   Overcast
8:42 AM 39.2 °F 33.0 °F 37.4 °F 93% 30.09 in 10.0 mi NE 9.2 mph - N/A   Overcast
8:55 AM 38.5 °F 32.7 °F 36.7 °F 93% 30.09 in 10.0 mi NNE 8.1 mph - 0.00 in Rain Light Rain
8:58 AM 39.2 °F 33.6 °F 37.4 °F 93% 30.10 in 10.0 mi NE 8.1 mph - N/A   Overcast
9:55 AM 38.8 °F 33.8 °F 36.5 °F 91% 30.12 in 7.0 mi North 6.9 mph - 0.00 in   Overcast
9:58 AM 39.2 °F 35.0 °F 35.6 °F 87% 30.12 in 10.0 mi NNE 5.8 mph - N/A   Overcast
10:05 AM 39.2 °F 35.0 °F 37.4 °F 93% 30.05 in 7.0 mi North 5.8 mph - N/A   Overcast
10:10 AM 39.2 °F 35.0 °F 35.6 °F 87% 30.11 in 10.0 mi NNE 5.8 mph - N/A   Overcast
10:55 AM 40.3 °F 34.4 °F 36.9 °F 88% 30.13 in 10.0 mi NNE 9.2 mph - N/A   Overcast
11:01 AM 39.2 °F 32.5 °F 35.6 °F 87% 30.13 in 10.0 mi NE 10.4 mph - N/A   Overcast
11:23 AM 39.2 °F 32.5 °F 35.6 °F 87% 30.12 in 10.0 mi NNE 10.4 mph - N/A   Overcast
11:30 AM 39.2 °F 33.0 °F 35.6 °F 87% 30.12 in 10.0 mi NE 9.2 mph - N/A   Mostly Cloudy
11:55 AM 39.6 °F 33.5 °F 34.3 °F 82% 30.11 in 10.0 mi NE 9.2 mph - N/A   Overcast
12:31 PM 39.2 °F 33.6 °F 32.0 °F 75% 30.10 in 10.0 mi NE 8.1 mph - N/A   Overcast
12:55 PM 39.6 °F 35.4 °F 32.9 °F 77% 30.10 in 10.0 mi NNE 5.8 mph - N/A   Overcast
1:55 PM 39.7 °F 35.6 °F 31.5 °F 72% 30.10 in 10.0 mi NNE 5.8 mph - N/A   Overcast
2:55 PM 39.7 °F 35.6 °F 31.1 °F 71% 30.11 in 10.0 mi NNE 5.8 mph - N/A   Mostly Cloudy
3:24 PM 39.2 °F - 30.2 °F 70% 30.12 in 10.0 mi Calm Calm - N/A   Scattered Clouds
3:55 PM 39.7 °F - 30.7 °F 70% 30.13 in 10.0 mi Calm Calm - N/A   Scattered Clouds
4:55 PM 38.5 °F 34.1 °F 31.5 °F 76% 30.15 in 10.0 mi ENE 5.8 mph - N/A   Mostly Cloudy
5:55 PM 37.8 °F 35.3 °F 31.6 °F 79% 30.18 in 10.0 mi NE 3.5 mph - N/A   Scattered Clouds
6:55 PM 36.7 °F 34.1 °F 32.0 °F 83% 30.19 in 10.0 mi ENE 3.5 mph - N/A   Overcast
7:55 PM 37.0 °F 34.5 °F 32.4 °F 83% 30.19 in 10.0 mi NE 3.5 mph - N/A   Overcast
9:55 PM 37.2 °F 34.7 °F 31.1 °F 79% 30.22 in 10.0 mi NNE 3.5 mph - N/A   Overcast
10:55 PM 37.6 °F 34.0 °F 28.0 °F 68% 30.21 in 10.0 mi NNE 4.6 mph - N/A   Partly Cloudy
11:55 PM 37.2 °F 34.7 °F 27.3 °F 67% 30.21 in 10.0 mi North 3.5 mph - N/A   Overcast